Palembang, Indonesia

11:50 AM WIB on April 21, 2018 (GMT +0700)
Sultan M Badaruddin Ii

Weather History for WIPP - May, 2014

Change the Weather History Date:

Tuesday, May 13, 2014

  Actual Average Record
Temperature  
Mean Temperature 86 °F -  
Max Temperature 95 °F - - ()
Min Temperature 76 °F - - ()
Cooling Degree Days 20    
Growing Degree Days 36 (Base 50)    
Moisture  
Dew Point 76 °F    
Average Humidity 76    
Maximum Humidity 100    
Minimum Humidity 46    
Precipitation  
Precipitation 0.00 in - - ()
Sea Level Pressure  
Sea Level Pressure 29.79 in    
Wind  
Wind Speed 2 mph ()    
Max Wind Speed 10 mph    
Max Gust Speed -    
Visibility 4.5 miles    
Events Fog    
T = Trace of Precipitation, MM = Missing Value Source: Averaged Metar Reports

Daily Weather History Graph

Daily Weather History Graph

Search for Another Location

Airport or City:

Astronomy

May. 13, 2014 Rise Set
Actual Time 5:57 AM WIB 5:57 PM WIB
Civil Twilight 5:36 AM WIB 6:18 PM WIB
Nautical Twilight 5:10 AM WIB 6:44 PM WIB
Astronomical Twilight 4:45 AM WIB 7:09 PM WIB
Moon 4:46 PM WIB (5/13) 4:24 AM WIB (5/13)
Length of Visible Light 12h 42m
Length of Day
11h 59m
Waxing Gibbous, 97% of the Moon is Illuminated
May 13
Waxing Gibbous
May 15
Full
May 21
Last Quarter
May 29
New
Jun 6
First Quarter

Hourly Weather History & Observations

Time (WIB) Temp. Heat Index Dew Point Humidity Pressure Visibility Wind Dir Wind Speed Gust Speed Precip Events Conditions
1:00 AM 78 °F - 76 °F 94% 29.84 in 2 mi Calm Calm - -   Mist
4:00 AM 77 °F - 76 °F 95% 29.80 in 1 mi Calm Calm - -   Mist
5:00 AM 77.0 °F - 77.0 °F 100% 29.80 in 0.5 mi WSW 5.8 mph - N/A   Partly Cloudy
5:30 AM 77.0 °F - 77.0 °F 100% 29.80 in 0.1 mi SW 5.8 mph - N/A Fog Fog
6:00 AM 77.0 °F - 77.0 °F 100% 29.80 in 0.0 mi Calm Calm - N/A Fog Fog
6:30 AM 77.0 °F - 77.0 °F 100% 29.80 in 0.1 mi Calm Calm - N/A Fog Fog
7:00 AM 77 °F - 76 °F 97% 29.84 in 0 mi NNW 3.5 mph - - Fog Heavy Fog
7:00 AM 77.0 °F - 77.0 °F 100% 29.83 in 0.0 mi West 3.5 mph - N/A Fog Fog
7:30 AM 77.0 °F - 77.0 °F 100% 29.83 in 0.2 mi WSW 3.5 mph - N/A Fog Fog
8:00 AM 78.8 °F - 77.0 °F 94% 29.83 in 0.9 mi West 5.8 mph - N/A   Mist
9:00 AM 82.4 °F 92.4 °F 78.8 °F 89% 29.86 in 2.5 mi Calm Calm - N/A   Haze
9:30 AM 86.0 °F 99.3 °F 78.8 °F 79% 29.86 in 5.0 mi Calm Calm - N/A   Scattered Clouds
10:00 AM 88 °F - 76 °F 61% 29.86 in 6 mi North 3.5 mph - -   Partly Cloudy
10:00 AM 89.6 °F 104.7 °F 78.8 °F 70% 29.86 in 6.2 mi Calm Calm - N/A   Scattered Clouds
10:30 AM 87.8 °F 99.7 °F 77.0 °F 70% 29.86 in 6.2 mi Calm Calm - N/A   Scattered Clouds
11:00 AM 87.8 °F 97.6 °F 75.2 °F 66% 29.83 in 6.2 mi Calm Calm - N/A   Mostly Cloudy
12:00 PM 89.6 °F 98.2 °F 73.4 °F 59% 29.80 in 6.2 mi Calm Calm - N/A   Mostly Cloudy
1:00 PM 92 °F - 76 °F 50% 29.79 in 6 mi Calm Calm - -   Partly Cloudy
1:00 PM 91.4 °F 102.5 °F 75.2 °F 59% 29.77 in 6.2 mi SE 5.8 mph - N/A   Scattered Clouds
1:30 PM 89.6 °F 99.8 °F 75.2 °F 62% 29.74 in 6.2 mi South 5.8 mph - N/A   Scattered Clouds
2:00 PM 93.2 °F 102.4 °F 73.4 °F 52% 29.74 in 6.2 mi SE 5.8 mph - N/A   Scattered Clouds
3:00 PM 95.0 °F 103.2 °F 71.6 °F 47% 29.71 in 6.2 mi WNW 3.5 mph - N/A   Scattered Clouds
3:30 PM 93.2 °F 102.4 °F 73.4 °F 52% 29.71 in 6.2 mi Calm Calm - N/A   Scattered Clouds
4:00 PM 92 °F - 74 °F 46% 29.72 in 6 mi ESE 5.8 mph - -   Partly Cloudy
4:00 PM 91.4 °F 100.1 °F 73.4 °F 55% 29.71 in 6.2 mi SE 3.5 mph - N/A   Scattered Clouds
4:30 PM 91.4 °F 100.1 °F 73.4 °F 55% 29.71 in 6.2 mi NNE 5.8 mph - N/A   Scattered Clouds
5:00 PM 91.4 °F 100.1 °F 73.4 °F 55% 29.74 in 6.2 mi NE 3.5 mph - N/A   Scattered Clouds
5:30 PM 87.8 °F 97.6 °F 75.2 °F 66% 29.74 in 6.2 mi NE 10.4 mph - N/A   Scattered Clouds
6:00 PM 84.2 °F 92.3 °F 75.2 °F 74% 29.77 in 6.2 mi East 9.2 mph - N/A   Partly Cloudy
6:30 PM 80.6 °F 86.2 °F 75.2 °F 84% 29.77 in 6.2 mi NE 5.8 mph - N/A   Scattered Clouds
7:00 PM 81 °F - 75 °F 77% 29.78 in 6 mi NE 5.8 mph - -   Partly Cloudy
7:00 PM 80.6 °F 86.2 °F 75.2 °F 84% 29.77 in 6.2 mi NE 3.5 mph - N/A   Partly Cloudy
8:00 PM 80.6 °F 86.2 °F 75.2 °F 84% 29.80 in 6.2 mi East 3.5 mph - N/A   Partly Cloudy
8:30 PM 80.6 °F 86.2 °F 75.2 °F 84% 29.80 in 6.2 mi East 3.5 mph - N/A   Partly Cloudy
9:00 PM 80.6 °F 86.2 °F 75.2 °F 84% 29.83 in 6.2 mi ESE 4.6 mph - N/A   Partly Cloudy
10:00 PM 80 °F - 75 °F 80% 29.85 in 6 mi Calm Calm - -   Scattered Clouds
11:00 PM 80.6 °F 86.2 °F 75.2 °F 84% 29.83 in 6.2 mi Calm Calm - N/A   Partly Cloudy